Location: Bo?a Wola
(50.4192°N, 19.7966°E)
Time: 20:41:36
(UTC+00:00)

Cosmos 1455 Rocket - Pass Details

Date: 19 September 2024
Orbit: 601 x 623 km, 82.5° (Epoch: 13 October)

Event Time Altitude Azimuth Distance (km) Brightness Sun altitude
Exits shadow 23:15:37 11° 42° (NE) 1,929 6.1 -37.8°
Drops below altitude 10° 23:15:45 10° 41° (NE) 1,968 6.2 -37.8°
Sets 23:18:31 0° 23° (NNE) 2,882 7.4 -37.7°
